Weather Roundup
Issued by NWS Springfield, MO

Home | Current Version | Previous Version | Text Only | Print | Product List | Glossary On
Versions: 1 2 3 4 5 6 7 8 9 10 11 12 13 14 15 16 17 18 19 20 21 22 23 24 25 26 27 28 29 30 31 32 33 34 35 36 37 38 39 40 41 42 43 44 45 46 47 48 49 50
000
NZUS99 KSGF 220257
HRRSGF

HOURLY WEATHER
NATIONAL WEATHER SERVICE SPRINGFIELD MO
1000 PM CDT MON MAY 21 2018

......SGF CWA......

CITY           SKY/WX    TMP DP  RH WIND       PRES   REMARKS
SPRINGFIELD    CLEAR     69  61  75 CALM      30.03R

......SURROUNDING SGF CWA......

CITY           SKY/WX    TMP DP  RH WIND       PRES   REMARKS
CHANUTE        CLEAR     65  63  93 E3        30.02R
PARSONS        CLEAR     66  64  93 CALM      30.02R
COFFEYVILLE    CLEAR     67  65  93 CALM      30.00R
HARRISON AR    PTCLDY    69  68  96 CALM      30.04R

......KANSAS AND MISSOURI......

CITY           SKY/WX    TMP DP  RH WIND       PRES   REMARKS
KANSAS CTY INT NOT AVBL
ST JOSEPH      CLEAR     65  61  87 S7        30.00R
ST LOUIS       PTCLDY    75  70  84 S8        29.99R
TOPEKA         CLEAR     67  62  84 SE5       30.00R

......TENNESSEE......

CITY           SKY/WX    TMP DP  RH WIND       PRES   REMARKS
MEMPHIS        NOT AVBL

......ARKANSAS.......

CITY           SKY/WX    TMP DP  RH WIND       PRES   REMARKS
FT SMITH       CLEAR     77  68  73 CALM      29.98R
LITTLE ROCK    CLOUDY    74  72  93 SE5       30.01S

......OKLAHOMA.......

CITY           SKY/WX    TMP DP  RH WIND       PRES   REMARKS
TULSA          NOT AVBL
PONCA CITY     CLEAR     72  60  66 SE6       29.99R
OKLAHOMA CITY  PTCLDY    70  64  81 SE3       29.99R

......IOWA............

CITY           SKY/WX    TMP DP  RH WIND       PRES   REMARKS
DES MOINES     NOT AVBL
QUAD CITIES    FAIR      64  62  93 CALM      29.98R FOG

......ILLINOIS........

CITY           SKY/WX    TMP DP  RH WIND       PRES   REMARKS
QUINCY         NOT AVBL
CHICAGO        CLOUDY    57  55  93 N6        29.99S FOG




USA.gov is the U.S. government's official web portal to all federal, state and local government web resources and services.